Regional Weather Roundup
Issued by NWS

Home | Current Version | Previous Version | Graphics & Text | Print | Product List | Glossary On
Versions: 1 2 3 4 5 6 7 8 9 10 11 12 13 14 15 16 17 18 19 20 21 22 23 24 25 26 27 28 29 30 31 32 33 34 35 36 37 38 39 40 41 42 43 44 45 46 47 48 49 50
000
ASUS43 KDMX 191706
RWRIA

WEATHER ROUNDUP FOR IOWA
NATIONAL WEATHER SERVICE DES MOINES IA
1200 PM CDT THU OCT 19 2017

NOTE: "FAIR" INDICATES FEW OR NO CLOUDS BELOW 12,000 FEET WITH NO
SIGNIFICANT WEATHER AND/OR OBSTRUCTIONS TO VISIBILITY.

* - THESE STATIONS ARE NOT NWS STATIONS...THUS NOT UNDER NWS
QUALITY CONTROL.  THEY ALSO DO NOT REPORT WEATHER SUCH
AS PRECIPITATION OR FOG.

IAZ001>003-012>014-020>022-031>034-043>046-191800-
   NORTHWEST IOWA

CITY           SKY/WX    TMP DP  RH WIND       PRES   REMARKS
CARROLL *      SUNNY     81  54  39 SE17      30.10F HAZE    HX  80
CHEROKEE *     SUNNY     67  39  36 S12       30.08S
DENISON *      SUNNY     68  43  40 SE13      30.10S
LE MARS *      SUNNY     68  43  40 S14G20    30.05F
ORANGE CITY *  SUNNY     66  43  42 S10G18    30.06S
SHELDON *      SUNNY     66  37  34 S13G21    30.05S
SIOUX CITY     SUNNY     65  46  50 S13G20    30.06F
SPENCER        SUNNY     65  36  34 S17       30.08F
STORM LAKE *   SUNNY     66  34  30 SE12      30.09S
$$

IAZ055>058-069>071-079>083-090>094-191800-
   SOUTHWEST IOWA

CITY           SKY/WX    TMP DP  RH WIND       PRES   REMARKS
ATLANTIC *     SUNNY     68  50  52 SE13      30.09F
AUDUBON *      SUNNY     68  46  45 SE12G17   30.11F
CLARINDA *     SUNNY     70  54  56 S9        30.11F
COUNCIL BLFS * SUNNY     68  54  60 SE13      30.08S
CRESTON *      SUNNY     68  52  56 SE14G20   30.12F
HARLAN  *      SUNNY     70  48  46 SE14      30.11F
LAMONI         SUNNY     67  54  63 SE6       30.12F
RED OAK *      SUNNY     70  54  56 SE13      30.09F
$$

IAZ047>049-059>061-072>074-084-191800-
   CENTRAL IOWA

CITY           SKY/WX    TMP DP  RH WIND       PRES   REMARKS
AMES           SUNNY     66  39  37 SE12      30.13F
ANKENY *       SUNNY     66  36  32 SE10G17   30.14S
BOONE *        SUNNY     66  34  30 SE15      30.12S
CHARITON *     SUNNY     68  50  52 SE8G16    30.13S
DES MOINES     PTSUNNY   68  36  30 SE10      30.12F
KNOXVILLE *    SUNNY     68  41  37 SE12      30.12S
MARSHALLTOWN   SUNNY     65  34  31 SE10      30.14F
NEWTON *       SUNNY     68  32  26 SE15      30.14S
PELLA *        SUNNY     69  34  27 SE10G16   30.15S
PERRY *          N/A     69  30  23 SE9       30.12F
$$

IAZ004>006-015-016-023>025-035-036-191800-
   NORTH CENTRAL IOWA

CITY           SKY/WX    TMP DP  RH WIND       PRES   REMARKS
ALGONA *       SUNNY     66  32  28 S14G21    30.11S
CLARION *      CLOUDY    66  30  26 S18       30.12S
FORT DODGE *   SUNNY     64  35  34 SE12      30.12F
MASON CITY     CLOUDY    64  32  30 SE15      30.14S
FOREST CITY *    N/A     63  32  31 SE14      30.12S
WEBSTER CITY * SUNNY     66  32  28 SE13G18   30.10F
IOWA FALLS *     N/A     66  33  28 SE12G17   30.15S
$$

IAZ007>011-017>019-026>030-037>042-050>054-066-191800-
   NORTHEAST IOWA

CITY           SKY/WX    TMP DP  RH WIND       PRES   REMARKS
CEDAR RAPIDS   SUNNY     67  31  26 SE13      30.16S
CHARLES CITY * CLOUDY    66  28  24 SE9G15    30.14S
DECORAH *      SUNNY     66  30  26 S9G15     30.14R
DUBUQUE        SUNNY     64  29  26 E7        30.19S
MONTICELLO *   SUNNY     68  28  22 E9        30.17S
OELWEIN *      SUNNY     68  28  22 E12       30.16S
WATERLOO       SUNNY     64  34  32 SE10      30.15S
$$

IAZ064-065-067-068-078-191800-
   EAST CENTRAL IOWA

CITY           SKY/WX    TMP DP  RH WIND       PRES   REMARKS
DAVENPORT      SUNNY     66  33  29 SE14      30.20R
IOWA CITY      SUNNY     69  34  27 E8        30.18S
MUSCATINE *    SUNNY     70  37  30 E8        30.17S
QUAD CITIES    SUNNY     69  39  33 E10       30.18R
$$

IAZ062-063-075>077-085>089-095>099-191800-
   SOUTHEAST IOWA

CITY           SKY/WX    TMP DP  RH WIND       PRES   REMARKS
BURLINGTON     SUNNY     67  53  61 S6        30.16F
FAIRFIELD *    SUNNY     68  50  52 SE9       30.15S
FORT MADISON * SUNNY     70  54  56 SE6       30.17S HAZE
KEOKUK *       SUNNY     68  54  60 SE8       30.16S
OSKALOOSA *      N/A     71  40  33 SE10      30.15S
OTTUMWA        SUNNY     68  51  54 SE9       30.14F
WASHINGTON *   SUNNY     70  37  30 SE14      30.17S
$$

ABBREVIATIONS USED IN REMARKS
   TC - TEMPERATURES IN CELSIUS
  WCI - WIND CHILL INDEX
   HX - HEAT INDEX
  VSB - VISIBILITY
$$





USA.gov is the U.S. government's official web portal to all federal, state and local government web resources and services.